Find STARLINK-37548

NORAD ID: 70615 Constellation: starlink operational
LEOCIRCULARRETROGRADE

Live Position

Loading 3D Globe...

About STARLINK-37548

Description loading...

Upcoming Passes

Passes for default location (London). Set your location on the main map for personalized predictions.

Altitude History

Loading altitude history...

Two-Line Element Set

1 70615C 26101C 26126.29701389 .00443090 00000+0 69589-3 0 1266
2 70615 97.2850 339.8362 0009921 260.5264 261.3107 16.03625479 16
Epoch: May 6, 2026 • Age: 17 hours